Home > Weather > Port Elizabeth > Past weeks

Flag for South Africa Weather for the Past 2 Weeks in Port Elizabeth, South Africa

Now
64 °F

Clear.


Feels Like: 64 °F
Forecast: 64 / 79 °F
Wind: 16 mph from East

Location: Port Elizabeth Airport

Current Time: Feb 6, 2016 at 5:07:10 AM

Latest Report: Feb 6, 2016 at 4:00 AM


Visibility: 10 mi

Pressure: 29.98 "Hg

Humidity: 83%

Dew point: 59 °F

Location of Port ElizabethLocation

Historic Weather in Port Elizabeth — Graph

°F

Port Elizabeth Temperature Yesterday

Maximum temperature yesterday: 75 °F (at 12:00 PM)
Minimum temperature yesterday: 55 °F (at 5:00 AM)
Average temperature yesterday: 66 °F

High & Low Weather Summary for the Past Weeks

 TemperatureHumidityPressure
High86 °F (Jan 31, 1:00 PM)94% (Jan 22, 4:01 AM)30.18 "Hg (Jan 22, 4:01 AM)
Low55 °F (Feb 5, 5:00 AM)47% (Jan 27, 2:00 PM)29.65 "Hg (Feb 1, 4:00 PM)
Average72 °F77%29.95 "Hg
* Reported Jan 22 4:01 AM — Feb 6 4:00 AM, Port Elizabeth, Weather by CustomWeather, © 2016

Note: Actual official high and low records may vary slightly from our data, if they occured in-between our weather recording intervals... More about our weather records

Advertising

Port Elizabeth Weather History for the Previous 24 Hours

 ConditionsComfort  
Time TempWeatherWind HumidityBarometerVisibility
4:00 AM
Sat, Feb 6
64 °FClear.16 mph83%29.98 "Hg10 mi
3:00 AM66 °FClear.16 mph73%30.01 "Hg10 mi
2:00 AM66 °FClear.18 mph73%30.01 "Hg10 mi
1:00 AM66 °FClear.15 mph73%30.04 "Hg10 mi
12:00 AM66 °FClear.16 mph78%30.04 "Hg10 mi
11:00 PM
Fri, Feb 5
66 °FClear.14 mph78%30.07 "Hg10 mi
10:00 PM66 °FClear.17 mph78%30.07 "Hg10 mi
9:00 PM66 °FClear.17 mph73%30.07 "Hg10 mi
8:00 PM66 °FClear.16 mph73%30.07 "Hg10 mi
7:00 PM68 °FClear.18 mph69%30.04 "Hg10 mi
6:00 PM70 °FSunny.20 mph64%30.04 "Hg10 mi
5:00 PM72 °FSunny.23 mph61%30.04 "Hg10 mi
4:00 PM75 °FSunny.21 mph54%30.04 "Hg10 mi
3:00 PM75 °FSunny.24 mph50%30.07 "Hg10 mi
2:00 PM75 °FSunny.23 mph50%30.07 "Hg10 mi
1:00 PM75 °FSunny.24 mph54%30.09 "Hg10 mi
12:00 PM75 °FSunny.20 mph54%30.12 "Hg10 mi
11:00 AM73 °FPassing clouds.17 mph53%30.12 "HgN/A
10:00 AM72 °FPassing clouds.17 mph61%30.15 "HgN/A
9:00 AM70 °FPassing clouds.10 mph69%30.15 "HgN/A
8:00 AM66 °FPartly sunny.6 mph83%30.15 "HgN/A
7:00 AM59 °FSunny.No wind94%30.12 "Hg10 mi
6:00 AM55 °FSunny.2 mph94%30.12 "Hg10 mi
5:00 AM55 °FSunny.2 mph94%30.12 "Hg10 mi
Weather by CustomWeather, © 2016

See weather overviewHow to use our weather pages